Thomasville, GA

6:13 PM EST on December 14, 2019 (GMT -0500)
Thomasville Municipal

Weather History for KTVI - November, 2019

Change the Weather History Date:

Friday, November 15, 2019

  Actual Average (KVLD) Record (KVLD)
Temperature  
Mean Temperature 46 °F 60 °F  
Max Temperature 51 °F 73 °F 86 °F (2011)
Min Temperature 42 °F 48 °F 37 °F (2000)
Degree Days  
Heating Degree Days 18    
Month to date heating degree days  
Since 1 July heating degree days  
Cooling Degree Days 0    
Month to date cooling degree days  
Year to date cooling degree days  
Moisture  
Dew Point 47 °F    
Average Humidity 97    
Maximum Humidity 100    
Minimum Humidity 87    
Precipitation  
Precipitation 0.00 in 0.06 in 1.61 in (2006)
Month to date precipitation 1.20  
Year to date precipitation 46.07  
Sea Level Pressure  
Sea Level Pressure 30.04 in    
Wind  
Wind Speed 4 mph (North)    
Max Wind Speed 13 mph    
Max Gust Speed 17 mph    
Visibility 5 miles    
Events Rain    
T = Trace of Precipitation, MM = Missing Value Source: NWS Daily Summary

Daily Weather History Graph

Daily Weather History Graph

Search for Another Location

Airport or City:

Astronomy

Nov. 15, 2019 Rise Set
Actual Time 7:02 AM EST 5:37 PM EST
Civil Twilight 6:36 AM EST 6:03 PM EST
Nautical Twilight 6:07 AM EST 6:32 PM EST
Astronomical Twilight 5:38 AM EST 7:01 PM EST
Moon 8:19 PM EST (11/15) 9:51 AM EST (11/15)
Length of Visible Light 11h 26m
Length of Day
10h 35m
Waning Gibbous, 90% of the Moon is Illuminated
Nov 15
Waning Gibbous
Nov 19
Last Quarter
Nov 26
New
Dec 4
First Quarter
Dec 12
Full

Hourly Weather History & Observations

Time (EST) Temp. Windchill Dew Point Humidity Pressure Visibility Wind Dir Wind Speed Gust Speed Precip Events Conditions
12:15 AM 44.6 °F - 44.6 °F 100% 30.13 in 7.0 mi Calm Calm - N/A   Overcast
12:35 AM 44.6 °F - 44.6 °F 100% 30.13 in 7.0 mi Calm Calm - N/A   Overcast
12:55 AM 44.6 °F 40.7 °F 44.6 °F 100% 30.12 in 5.0 mi North 6.9 mph - N/A   Light Drizzle
1:15 AM 44.6 °F 40.7 °F 44.6 °F 100% 30.12 in 2.5 mi North 6.9 mph - N/A   Drizzle
1:35 AM 44.6 °F 41.4 °F 44.6 °F 100% 30.12 in 3.0 mi North 5.8 mph - N/A   Overcast
1:55 AM 44.6 °F 40.2 °F 44.6 °F 100% 30.10 in 3.0 mi North 8.1 mph - N/A   Light Drizzle
2:15 AM 44.6 °F 39.7 °F 42.8 °F 93% 30.09 in 3.0 mi North 9.2 mph - N/A Rain Rain
2:35 AM 44.6 °F 40.7 °F 42.8 °F 93% 30.11 in 2.5 mi NNW 6.9 mph - N/A   Overcast
2:55 AM 44.6 °F 39.7 °F 42.8 °F 93% 30.12 in 2.5 mi NNW 9.2 mph - N/A Rain Rain
3:35 AM 44.6 °F 39.2 °F 42.8 °F 93% 30.10 in 3.0 mi NNW 10.4 mph 17.3 mph N/A   Overcast
3:55 AM 42.8 °F 40.1 °F 42.8 °F 100% 30.08 in 7.0 mi North 4.6 mph - N/A   Overcast
4:15 AM 42.8 °F 36.2 °F 42.8 °F 100% 30.09 in 7.0 mi North 12.7 mph 16.1 mph N/A   Overcast
4:35 AM 42.8 °F 37.5 °F 42.8 °F 100% 30.10 in 7.0 mi North 9.2 mph - N/A   Overcast
4:55 AM 42.8 °F 38.6 °F 42.8 °F 100% 30.08 in 7.0 mi North 6.9 mph - N/A   Overcast
5:15 AM 42.8 °F 38.0 °F 42.8 °F 100% 30.09 in 10.0 mi North 8.1 mph - N/A   Overcast
5:35 AM 42.8 °F 37.5 °F 42.8 °F 100% 30.09 in 7.0 mi North 9.2 mph - N/A   Overcast
5:55 AM 42.8 °F 38.6 °F 42.8 °F 100% 30.09 in 7.0 mi North 6.9 mph - N/A   Overcast
6:15 AM 44.6 °F 40.7 °F 42.8 °F 93% 30.09 in 7.0 mi North 6.9 mph - N/A   Overcast
6:35 AM 44.6 °F 39.7 °F 42.8 °F 93% 30.08 in 10.0 mi NE 9.2 mph 16.1 mph N/A   Drizzle
6:55 AM 44.6 °F 42.2 °F 44.6 °F 100% 30.08 in 5.0 mi NNE 4.6 mph - N/A Rain Rain
7:15 AM 44.6 °F - 44.6 °F 100% 30.09 in 3.0 mi Calm Calm - N/A Rain Rain
7:35 AM 44.6 °F - 44.6 °F 100% 30.09 in 7.0 mi Calm Calm - N/A Rain Rain
8:15 AM 44.6 °F - 44.6 °F 100% 30.06 in 10.0 mi Calm Calm - N/A   Light Drizzle
8:35 AM 46.4 °F - 44.6 °F 93% 30.07 in 4.0 mi Calm Calm - N/A   Heavy Drizzle
8:55 AM 46.4 °F - 46.4 °F 100% 30.07 in 2.0 mi Calm Calm - N/A Rain Rain
9:15 AM 46.4 °F - 46.4 °F 100% 30.07 in 3.0 mi Calm Calm - N/A Rain Rain
9:35 AM 46.4 °F - 46.4 °F 100% 30.06 in 4.0 mi Calm Calm - N/A   Overcast
9:55 AM 48.2 °F - 46.4 °F 93% 30.06 in 7.0 mi Calm Calm - N/A   Overcast
10:15 AM 48.2 °F - 46.4 °F 93% 30.06 in 7.0 mi Calm Calm - N/A   Overcast
10:35 AM 50.0 °F - 46.4 °F 87% 30.07 in 5.0 mi Calm Calm - N/A   Overcast
10:55 AM 48.2 °F - 48.2 °F 100% 30.07 in 1.8 mi Calm Calm - N/A   Overcast
11:15 AM 48.2 °F - 48.2 °F 100% 30.06 in 1.5 mi Calm Calm - N/A   Overcast
11:35 AM 50.0 °F - 48.2 °F 94% 30.05 in 1.2 mi Calm Calm - N/A   Overcast
11:55 AM 50.0 °F - 50.0 °F 100% 30.04 in 1.2 mi Calm Calm - N/A   Overcast
12:15 PM 50.0 °F - 50.0 °F 100% 30.04 in 1.0 mi NW 6.9 mph - N/A Rain Rain
12:35 PM 50.0 °F - 50.0 °F 100% 30.03 in 1.0 mi Calm Calm - N/A Rain Rain
12:55 PM 50.0 °F - 50.0 °F 100% 30.02 in 1.0 mi Calm Calm - N/A Rain Light Rain
1:15 PM 50.0 °F - 48.2 °F 94% 30.02 in 1.0 mi Calm Calm - N/A Rain Light Rain
1:35 PM 50.0 °F - 48.2 °F 94% 30.01 in 1.0 mi Calm Calm - N/A   Light Drizzle
2:15 PM 50.0 °F - 50.0 °F 100% 29.99 in 2.0 mi NNW 9.2 mph - N/A   Overcast
2:35 PM 50.0 °F - 50.0 °F 100% 29.99 in 2.0 mi NNW 9.2 mph - N/A   Overcast
2:55 PM 50.0 °F - 50.0 °F 100% 29.99 in 2.5 mi NNW 9.2 mph - N/A   Overcast
3:15 PM 50.0 °F - 50.0 °F 100% 29.99 in 3.0 mi Calm Calm - N/A   Overcast
3:35 PM 50.0 °F - 50.0 °F 100% 29.99 in 4.0 mi NNW 8.1 mph - N/A   Overcast
3:55 PM 50.0 °F - 50.0 °F 100% 29.99 in 2.5 mi Calm Calm - N/A   Overcast
4:15 PM 51.8 °F - 50.0 °F 94% 29.99 in 4.0 mi Calm Calm - N/A   Overcast
4:35 PM 51.8 °F - 50.0 °F 94% 29.98 in 7.0 mi Calm Calm - N/A   Overcast
4:55 PM 51.8 °F - 50.0 °F 94% 29.99 in 7.0 mi Calm Calm - N/A   Overcast
5:15 PM 51.8 °F - 50.0 °F 94% 29.99 in 10.0 mi Calm Calm - N/A   Overcast
5:35 PM 51.8 °F - 50.0 °F 94% 29.99 in 4.0 mi NNW 4.6 mph - N/A   Overcast
5:55 PM 50.0 °F - 50.0 °F 100% 29.99 in 2.0 mi Calm Calm - N/A   Drizzle
6:15 PM 50.0 °F - 50.0 °F 100% 29.99 in 2.5 mi Calm Calm - N/A Rain Light Rain
6:55 PM 51.8 °F - 50.0 °F 94% 30.00 in 4.0 mi Calm Calm - N/A   Light Drizzle
7:15 PM 50.0 °F - 50.0 °F 100% 30.01 in 4.0 mi NNW 10.4 mph - N/A   Light Drizzle
7:35 PM 50.0 °F - 50.0 °F 100% 30.01 in 4.0 mi North 11.5 mph 17.3 mph N/A   Light Drizzle
7:55 PM 50.0 °F - 50.0 °F 100% 30.01 in 4.0 mi North 6.9 mph - N/A   Overcast
8:15 PM 50.0 °F - 50.0 °F 100% 30.01 in 3.0 mi North 6.9 mph - N/A   Overcast
8:35 PM 50.0 °F - 50.0 °F 100% 30.01 in 7.0 mi North 4.6 mph - N/A   Overcast
8:55 PM 50.0 °F - 50.0 °F 100% 30.01 in 7.0 mi North 8.1 mph - N/A   Overcast
9:15 PM 50.0 °F - 48.2 °F 94% 30.01 in 5.0 mi North 9.2 mph - N/A   Overcast
9:35 PM 50.0 °F - 48.2 °F 94% 30.01 in 10.0 mi North 9.2 mph 16.1 mph N/A   Overcast
9:55 PM 50.0 °F - 46.4 °F 87% 30.01 in 10.0 mi North 8.1 mph - N/A   Overcast
10:15 PM 50.0 °F - 46.4 °F 87% 30.01 in 10.0 mi North 8.1 mph - N/A   Overcast
10:35 PM 50.0 °F - 46.4 °F 87% 30.01 in 10.0 mi NNW 4.6 mph - N/A   Overcast
10:55 PM 48.2 °F - 46.4 °F 93% 30.01 in 10.0 mi Calm Calm - N/A   Overcast
11:15 PM 48.2 °F - 46.4 °F 93% 30.00 in 10.0 mi Calm Calm - N/A   Overcast
11:35 PM 48.2 °F - 46.4 °F 93% 29.99 in 7.0 mi Calm Calm - N/A   Overcast
11:55 PM 46.4 °F - 46.4 °F 100% 29.99 in 10.0 mi Calm Calm - N/A   Overcast